sat.trackr.live / text

‹ back to catalog

NAVSTAR 52 (USA 168)

NORAD 27704 · 2003-010A

PAYLOAD ACTIVE UNKNOWN

§ Identity

Operator
Country
US
Launch date
2003-03-31
Launch site
AFETR
Launch vehicle
Mass (kg)
RCS (m²)
4.02

External: N2YO · Heavens-Above · Gunter

§ Orbital elements

Epoch: 2026-09-15T14:30:00.000288Z

Period
752.13 min
Inclination
54.7510°
Eccentricity
0.0006677
Mean motion
1.91455122 rev/d
Perigee alt
20,999.8 km
Apogee alt
21,036.4 km
Semi-major
27,396.2 km
B*
0.0000e+0
RAAN
321.8464°
Arg perigee
253.3961°
Mean anomaly
110.1098°
Rev number
17,166

§ Raw data

NAVSTAR 52 (USA 168)1 27704U 03010A   26258.60416667 -.00000094  00000+0  00000+0 0  99952 27704  54.7510 321.8464 0006677 253.3961 110.1098  1.91455122171668

JSON: /api/v1/satellites/27704 · /tle

For live sub-satellite position, see the globe view (requires WebGL).

§ Visibility from observer

Set your observer location to see the next 7 days of passes ≥ 10°. The values pass through the URL so the page stays shareable.

No JS? Fill the form by hand. The geolocation button needs JavaScript.